Location: Bridalveil Moraine
(37.7171°N, 119.6568°W)
Time: 15:59:50
(UTC+00:00)

Starlink G9-6 Placeholder - Pass Details

Date: 14 August 2024
Orbit: 290 x 300 km, 53.2° (Epoch: 13 September)

Event Time Altitude Azimuth Distance (km) Brightness Sun altitude
Exits shadow 10:42:45 - 347° (NNW) 1,813 6.7 -26.1°
Enters shadow 11:46:02 -63° 287° (WNW) 11,732 10.3 -16.5°
Maximum altitude 12:19:50 17° 32° (NNE) 851 5.5 -10.7°
